FW1574 Weather Reports


Display with metric or nautical units.
time (UTC)temp
F
wind
direction
speed
MPH
gust
MPH
rain 1hr
in
rain 24hr
in
rain mn
in
humidity
%
barometer
mb
20260901161030 86 266 0.0 0.0 0.00 0.00 0.00 64 1019.2
20260901160530 86 345 0.0 0.0 0.00 0.00 0.00 66 1019.2
20260901160037 86 250 0.0 0.0 0.00 0.00 0.00 64 1019.3
20260901155524 86 288 0.0 0.0 0.00 0.00 0.00 69 1019.4
20260901155025 85 275 0.0 0.0 0.00 0.00 0.00 71 1019.4
20260901154524 85 250 0.0 0.0 0.00 0.00 0.00 71 1019.4
20260901154022 84 242 0.0 0.0 0.00 0.00 0.00 71 1019.5
20260901153521 84 247 0.0 0.0 0.00 0.00 0.00 72 1019.5
20260901153021 84 254 0.0 0.0 0.00 0.00 0.00 72 1019.5
20260901152522 84 252 0.0 0.0 0.00 0.00 0.00 71 1019.6
20260901152019 83 270 0.0 0.0 0.00 0.00 0.00 74 1019.7
20260901151518 83 270 0.0 0.0 0.00 0.00 0.00 75 1019.6
20260901151022 83 269 0.0 0.0 0.00 0.00 0.00 75 1019.7
20260901150516 83 277 0.0 0.0 0.00 0.00 0.00 77 1019.7
20260901150014 82 54 0.0 0.0 0.00 0.00 0.00 79 1019.6
20260901145514 82 54 0.0 0.0 0.00 0.00 0.00 78 1019.7
20260901145014 82 102 0.0 0.0 0.00 0.00 0.00 80 1019.7
20260901144514 81 67 0.0 0.0 0.00 0.00 0.00 80 1019.7
20260901144012 81 67 0.0 0.0 0.00 0.00 0.00 81 1019.7
20260901143511 81 9 0.0 0.0 0.00 0.00 0.00 81 1019.7
20260901143010 81 105 0.0 0.0 0.00 0.00 0.00 83 1019.7
20260901142510 80 136 0.0 0.0 0.00 0.00 0.00 83 1019.7
20260901142010 80 136 0.0 0.0 0.00 0.00 0.00 82 1019.7
20260901141508 79 135 0.0 0.0 0.00 0.00 0.00 85 1019.7
20260901141006 79 297 0.0 0.0 0.00 0.00 0.00 86 1019.7
20260901140504 78 297 0.0 0.0 0.00 0.00 0.00 84 1019.7
20260901140005 78 297 0.0 0.0 0.00 0.00 0.00 85 1019.7
20260901135502 77 294 0.0 0.0 0.00 0.00 0.00 89 1019.7
20260901135003 76 294 0.0 0.0 0.00 0.00 0.00 92 1019.7
20260901134624 75 360 0.0 0.0 0.00 0.00 0.00 94 1019.6
20260901134058 74 360 0.0 0.0 0.00 0.00 0.00 97 1019.6
20260901133557 74 360 0.0 0.0 0.00 0.00 0.00 97 1019.7
20260901133056 73 360 0.0 0.0 0.00 0.00 0.00 97 1019.7
20260901132601 73 360 0.0 0.0 0.00 0.00 0.00 97 1019.8
20260901132056 73 360 0.0 0.0 0.00 0.00 0.00 97 1019.8
20260901131556 73 360 0.0 0.0 0.00 0.00 0.00 97 1019.8
20260901131056 72 360 0.0 0.0 0.00 0.00 0.00 97 1019.7
20260901130559 72 360 0.0 0.0 0.00 0.00 0.00 97 1019.8
20260901130107 71 360 0.0 0.0 0.00 0.00 0.00 97 1019.7
20260901125554 71 360 0.0 0.0 0.00 0.00 0.00 97 1019.7
20260901125054 71 360 0.0 0.0 0.00 0.00 0.00 96 1019.7
20260901124602 71 360 0.0 0.0 0.00 0.00 0.00 96 1019.7
20260901124053 71 360 0.0 0.0 0.00 0.00 0.00 96 1019.7
20260901123553 70 360 0.0 0.0 0.00 0.00 0.00 96 1019.6
20260901123053 70 360 0.0 0.0 0.00 0.00 0.00 96 1019.6
20260901122554 70 360 0.0 0.0 0.00 0.00 0.00 96 1019.5
20260901122051 69 360 0.0 0.0 0.00 0.00 0.00 96 1019.5
20260901121555 69 360 0.0 0.0 0.00 0.00 0.00 96 1019.4
20260901121052 69 360 0.0 0.0 0.00 0.00 0.00 96 1019.4
20260901120551 69 360 0.0 0.0 0.00 0.00 0.00 95 1019.3
20260901120059 69 360 0.0 0.0 0.00 0.00 0.00 95 1019.2
20260901115548 69 360 0.0 0.0 0.00 0.00 0.00 95 1019.2
20260901115047 69 360 0.0 0.0 0.00 0.00 0.00 95 1019.1
20260901114547 69 360 0.0 0.0 0.00 0.00 0.00 95 1018.9
20260901114046 69 360 0.0 0.0 0.00 0.00 0.00 95 1018.8
20260901113546 69 360 0.0 0.0 0.00 0.00 0.00 95 1018.8
20260901113108 69 360 0.0 0.0 0.00 0.00 0.00 95 1018.7
20260901112544 69 360 0.0 0.0 0.00 0.00 0.00 95 1018.6
20260901112043 69 360 0.0 0.0 0.00 0.00 0.00 95 1018.6
20260901111542 69 360 0.0 0.0 0.00 0.00 0.00 95 1018.4
20260901111042 69 360 0.0 0.0 0.00 0.00 0.00 95 1018.3
20260901110543 69 360 0.0 0.0 0.00 0.00 0.00 95 1018.4
20260901110055 69 360 0.0 0.0 0.00 0.00 0.00 95 1018.3
20260901105543 69 360 0.0 0.0 0.00 0.00 0.00 95 1018.3
20260901105042 69 360 0.0 0.0 0.00 0.00 0.00 95 1018.3
20260901104544 69 360 0.0 0.0 0.00 0.00 0.00 95 1018.2
20260901104039 69 360 0.0 0.0 0.00 0.00 0.00 95 1018.2
20260901103538 69 360 0.0 0.0 0.00 0.00 0.00 95 1018.2
20260901103038 69 360 0.0 0.0 0.00 0.00 0.00 95 1018.2
20260901102538 69 360 0.0 0.0 0.00 0.00 0.00 95 1018.2
20260901102037 69 360 0.0 0.0 0.00 0.00 0.00 95 1018.1
20260901101556 69 360 0.0 0.0 0.00 0.00 0.00 95 1018.1
20260901101036 69 360 0.0 0.0 0.00 0.00 0.00 95 1018.2
20260901100536 69 360 0.0 1.0 0.00 0.00 0.00 95 1018.1
20260901100036 69 360 0.0 1.0 0.00 0.00 0.00 95 1018.1
20260901095534 69 360 0.0 1.0 0.00 0.00 0.00 95 1018.0
20260901095034 69 360 0.0 1.0 0.00 0.00 0.00 95 1018.0
20260901094534 69 360 0.0 0.0 0.00 0.00 0.00 95 1017.9
20260901094033 70 360 0.0 0.0 0.00 0.00 0.00 95 1017.9
20260901093535 70 360 0.0 0.0 0.00 0.00 0.00 95 1018.0
20260901093034 70 360 0.0 0.0 0.00 0.00 0.00 95 1018.0
20260901092533 70 360 0.0 0.0 0.00 0.00 0.00 95 1018.0
20260901092033 70 360 0.0 0.0 0.00 0.00 0.00 95 1017.9
20260901091533 70 360 0.0 0.0 0.00 0.00 0.00 95 1017.9
20260901091032 70 360 0.0 0.0 0.00 0.00 0.00 95 1017.9
20260901090532 70 360 0.0 0.0 0.00 0.00 0.00 95 1017.8
20260901090034 70 360 0.0 0.0 0.00 0.00 0.00 95 1017.9
20260901085531 70 360 0.0 0.0 0.00 0.00 0.00 95 1017.7
20260901085031 70 360 0.0 0.0 0.00 0.00 0.00 95 1017.7
20260901084541 70 360 0.0 0.0 0.00 0.00 0.00 95 1017.7
20260901084035 69 360 0.0 0.0 0.00 0.00 0.00 95 1017.7
20260901083535 69 360 0.0 0.0 0.00 0.00 0.00 95 1017.6
20260901083036 69 360 0.0 0.0 0.00 0.00 0.00 95 1017.5
20260901082530 69 360 0.0 0.0 0.00 0.00 0.00 95 1017.6
20260901082030 69 360 0.0 0.0 0.00 0.00 0.00 95 1017.6
20260901081533 69 360 0.0 0.0 0.00 0.00 0.00 95 1017.5
20260901081030 70 360 0.0 0.0 0.00 0.00 0.00 95 1017.6
20260901080530 70 360 0.0 0.0 0.00 0.00 0.00 95 1017.6
20260901080037 70 360 0.0 0.0 0.00 0.00 0.00 95 1017.6
20260901075529 70 360 0.0 0.0 0.00 0.00 0.00 95 1017.5
20260901075028 70 360 0.0 0.0 0.00 0.00 0.00 95 1017.5
20260901074528 70 360 0.0 0.0 0.00 0.00 0.00 95 1017.5
20260901074027 70 360 0.0 0.0 0.00 0.00 0.00 95 1017.5
20260901073527 70 360 0.0 0.0 0.00 0.00 0.00 95 1017.4
20260901073029 70 360 0.0 0.0 0.00 0.00 0.00 95 1017.4
20260901072527 70 360 0.0 0.0 0.00 0.00 0.00 95 1017.4
20260901072026 70 360 0.0 0.0 0.00 0.00 0.00 95 1017.4
20260901071526 70 360 0.0 0.0 0.00 0.00 0.00 95 1017.4
20260901071028 70 360 0.0 0.0 0.00 0.00 0.00 95 1017.4
20260901070524 71 360 0.0 0.0 0.00 0.00 0.00 95 1017.5
20260901070023 71 360 0.0 0.0 0.00 0.00 0.00 95 1017.5
20260901065525 71 360 0.0 0.0 0.00 0.00 0.00 95 1017.6
20260901065022 71 360 0.0 0.0 0.00 0.00 0.00 95 1017.6
20260901064527 71 360 0.0 0.0 0.00 0.00 0.00 95 1017.6
20260901064022 71 360 0.0 0.0 0.00 0.00 0.00 95 1017.7
20260901063522 71 360 0.0 0.0 0.00 0.00 0.00 95 1017.7
20260901063021 71 360 0.0 0.0 0.00 0.00 0.00 95 1017.8
20260901062526 71 360 0.0 0.0 0.00 0.00 0.00 95 1017.8
20260901062031 71 360 0.0 0.0 0.00 0.00 0.00 95 1017.9
20260901061521 71 360 0.0 0.0 0.00 0.00 0.00 95 1017.9
20260901061021 71 360 0.0 0.0 0.00 0.00 0.00 95 1017.9
20260901060520 71 360 0.0 0.0 0.00 0.00 0.00 94 1017.9
20260901060019 71 360 0.0 0.0 0.00 0.00 0.00 94 1017.9
20260901055520 71 360 0.0 0.0 0.00 0.00 0.00 94 1017.9
20260901055025 71 360 0.0 0.0 0.00 0.00 0.00 94 1017.8
20260901054518 71 360 0.0 0.0 0.00 0.00 0.00 94 1017.8
20260901054024 71 360 0.0 0.0 0.00 0.00 0.00 93 1017.9
20260901053520 72 360 0.0 0.0 0.00 0.00 0.00 94 1017.9
20260901053020 72 360 0.0 0.0 0.00 0.00 0.00 94 1017.9
20260901052519 72 360 0.0 0.0 0.00 0.00 0.00 94 1017.9
20260901052015 72 360 0.0 0.0 0.00 0.00 0.00 93 1017.9
20260901051515 72 360 0.0 1.0 0.00 0.00 0.00 93 1017.9
20260901051015 72 360 0.0 1.0 0.00 0.00 0.00 93 1017.9
20260901050515 72 360 0.0 1.0 0.00 0.00 0.00 93 1017.8
20260901050014 72 360 0.0 0.0 0.00 0.00 0.00 92 1017.8
20260901045514 72 360 0.0 0.0 0.00 0.00 0.00 92 1017.9
20260901045016 72 360 0.0 0.0 0.00 0.00 0.00 92 1017.8
20260901044515 72 360 0.0 0.0 0.00 0.00 0.00 92 1017.8
20260901044012 72 360 0.0 0.0 0.00 0.00 0.00 92 1017.7
20260901043512 72 360 0.0 0.0 0.00 0.00 0.00 92 1017.6
20260901043020 73 360 0.0 0.0 0.00 0.00 0.00 92 1017.6
20260901042518 73 360 0.0 0.0 0.00 0.00 0.00 92 1017.6
20260901042020 73 360 0.0 0.0 0.00 0.00 0.00 92 1017.7
20260901041510 73 360 0.0 0.0 0.00 0.00 0.00 91 1017.7
20260901041010 73 360 0.0 0.0 0.00 0.00 0.00 91 1017.7
20260901040509 73 360 0.0 0.0 0.00 0.00 0.00 92 1017.6
20260901040009 73 360 0.0 0.0 0.00 0.00 0.00 92 1017.7
20260901035507 73 360 0.0 0.0 0.00 0.00 0.00 91 1017.7
20260901035009 74 360 0.0 0.0 0.00 0.00 0.00 91 1017.6
20260901034507 74 360 0.0 0.0 0.00 0.00 0.00 90 1017.6
20260901034009 74 360 0.0 0.0 0.00 0.00 0.00 90 1017.6
20260901033507 74 360 0.0 0.0 0.00 0.00 0.00 90 1017.7
20260901033007 74 360 0.0 0.0 0.00 0.00 0.00 90 1017.6
20260901032507 74 360 0.0 0.0 0.00 0.00 0.00 90 1017.6
20260901032010 75 360 0.0 0.0 0.00 0.00 0.00 90 1017.6
20260901031507 75 360 0.0 0.0 0.00 0.00 0.00 89 1017.6
20260901031006 75 360 0.0 0.0 0.00 0.00 0.00 89 1017.6
20260901030506 75 360 0.0 1.0 0.00 0.00 0.00 89 1017.6
20260901030014 75 360 0.0 1.0 0.00 0.00 0.00 88 1017.7
20260901025506 76 360 0.0 0.0 0.00 0.00 0.00 87 1017.7
20260901025006 75 360 0.0 0.0 0.00 0.00 0.00 88 1017.7
20260901024507 75 360 0.0 0.0 0.00 0.00 0.00 88 1017.6
20260901024008 75 360 0.0 0.0 0.00 0.00 0.00 88 1017.7
20260901023505 76 360 0.0 0.0 0.00 0.00 0.00 87 1017.7
20260901023005 76 360 0.0 0.0 0.00 0.00 0.00 86 1017.7
20260901022505 76 360 0.0 0.0 0.00 0.00 0.00 87 1017.7
20260901022008 76 360 0.0 0.0 0.00 0.00 0.00 87 1017.6
20260901021507 77 360 0.0 0.0 0.00 0.00 0.00 86 1017.6
20260901021005 77 360 0.0 0.0 0.00 0.00 0.00 86 1017.5
20260901020505 77 360 0.0 0.0 0.00 0.00 0.00 87 1017.4
20260901020016 77 360 0.0 0.0 0.00 0.00 0.00 87 1017.4
20260901015505 77 360 0.0 0.0 0.00 0.00 0.00 88 1017.3
20260901015005 76 360 0.0 0.0 0.00 0.00 0.00 88 1017.2
20260901014504 77 360 0.0 0.0 0.00 0.00 0.00 87 1017.2
20260901014004 77 360 0.0 0.0 0.00 0.00 0.00 85 1017.1
20260901013504 77 360 0.0 0.0 0.00 0.00 0.00 85 1017.0
20260901013004 78 360 0.0 0.0 0.00 0.00 0.00 83 1017.0
20260901012503 78 360 0.0 0.0 0.00 0.00 0.00 83 1016.9
20260901012003 78 360 0.0 0.0 0.00 0.00 0.00 82 1016.9
20260901011503 79 360 0.0 0.0 0.00 0.00 0.00 83 1016.8
20260901011002 79 360 0.0 0.0 0.00 0.00 0.00 81 1016.7
20260901010505 79 360 0.0 0.0 0.00 0.00 0.00 83 1016.7
20260901010002 79 360 0.0 0.0 0.00 0.00 0.00 81 1016.6
20260901005505 79 360 0.0 0.0 0.00 0.00 0.00 81 1016.6
20260901005001 79 360 0.0 0.0 0.00 0.00 0.00 81 1016.6
20260901004501 80 360 0.0 0.0 0.00 0.00 0.00 79 1016.6
20260901004003 80 360 0.0 0.0 0.00 0.00 0.00 78 1016.4
20260901003504 80 360 0.0 0.0 0.00 0.00 0.00 78 1016.4
20260901003002 81 360 0.0 0.0 0.00 0.00 0.00 78 1016.3
20260901002501 81 360 0.0 0.0 0.00 0.00 0.00 77 1016.3
20260901002002 82 360 0.0 0.0 0.00 0.00 0.00 74 1016.3
20260901001613 82 360 0.0 0.0 0.00 0.00 0.00 73 1016.3
20260901001100 82 360 0.0 0.0 0.00 0.00 0.00 69 1016.4
20260901000600 83 360 0.0 0.0 0.00 0.00 0.00 70 1016.4
20260831235600 83 360 0.0 0.0 0.00 0.00 0.00 68 1016.4
20260831235100 84 360 0.0 0.0 0.00 0.00 0.00 67 1016.4
20260831234610 84 360 0.0 2.0 0.00 0.00 0.00 69 1016.4
20260831234100 85 360 0.0 2.0 0.00 0.00 0.00 66 1016.5
20260831233558 85 355 0.0 2.0 0.00 0.00 0.00 64 1016.5
20260831233059 85 355 0.0 0.0 0.00 0.00 0.00 66 1016.4
20260831232559 86 355 0.0 0.0 0.00 0.00 0.00 62 1016.5
20260831232057 86 355 0.0 0.0 0.00 0.00 0.00 65 1016.4
20260831231606 86 355 0.0 0.0 0.00 0.00 0.00 62 1016.5
20260831231059 87 355 0.0 0.0 0.00 0.00 0.00 62 1016.5
20260831230559 87 355 0.0 0.0 0.00 0.00 0.00 61 1016.6
20260831230056 87 355 0.0 0.0 0.00 0.00 0.00 60 1016.6
20260831225555 87 355 0.0 0.0 0.00 0.00 0.00 61 1016.6
20260831225058 87 355 0.0 0.0 0.00 0.00 0.00 61 1016.6
20260831224555 88 355 0.0 0.0 0.00 0.00 0.00 59 1016.7
20260831224059 88 355 0.0 0.0 0.00 0.00 0.00 59 1016.7
20260831223554 88 355 0.0 0.0 0.00 0.00 0.00 57 1016.7
20260831223054 89 355 0.0 2.0 0.00 0.00 0.00 57 1016.7
20260831222553 89 355 0.0 2.0 0.00 0.00 0.00 58 1016.7
20260831222057 89 15 0.0 0.0 0.00 0.00 0.00 56 1016.6
20260831221553 90 15 0.0 1.0 0.00 0.00 0.00 55 1016.7
20260831221053 90 15 0.0 2.0 0.00 0.00 0.00 52 1016.7
20260831220553 90 15 0.0 2.0 0.00 0.00 0.00 53 1016.8
20260831220110 90 344 0.0 2.0 0.00 0.00 0.00 54 1016.8
20260831215554 90 344 0.0 2.0 0.00 0.00 0.00 52 1016.7
20260831215052 90 342 0.0 2.0 0.00 0.00 0.00 55 1016.7
20260831214552 89 258 0.0 1.0 0.00 0.00 0.00 56 1016.8
20260831214050 90 258 0.0 2.0 0.00 0.00 0.00 56 1016.9
20260831213550 90 258 1.0 2.0 0.00 0.00 0.00 52 1016.9
20260831213051 90 258 0.0 2.0 0.00 0.00 0.00 55 1016.9
20260831212553 90 258 0.0 2.0 0.00 0.00 0.00 56 1017.0
20260831212050 90 257 1.0 2.0 0.00 0.00 0.00 52 1017.0
20260831211605 90 283 0.0 2.0 0.00 0.00 0.00 52 1017.0
20260831211049 90 288 0.0 2.0 0.00 0.00 0.00 53 1017.0
20260831210555 90 163 1.0 2.0 0.00 0.00 0.00 55 1017.0
20260831210053 90 163 0.0 2.0 0.00 0.00 0.00 53 1017.1
20260831205548 91 299 1.0 2.0 0.00 0.00 0.00 53 1017.0
20260831205049 90 265 0.0 2.0 0.00 0.00 0.00 56 1017.1
20260831204548 91 265 0.0 2.0 0.00 0.00 0.00 55 1017.0
20260831204048 91 265 0.0 2.0 0.00 0.00 0.00 54 1017.1
20260831203547 90 265 0.0 2.0 0.00 0.00 0.00 57 1017.1
20260831203049 90 265 0.0 2.0 0.00 0.00 0.00 52 1017.3
20260831202546 91 265 1.0 2.0 0.00 0.00 0.00 55 1017.4
20260831202046 91 265 0.0 2.0 0.00 0.00 0.00 53 1017.4
20260831201551 90 265 0.0 0.0 0.00 0.00 0.00 52 1017.4
20260831201048 90 243 0.0 0.0 0.00 0.00 0.00 53 1017.5
20260831200544 91 243 0.0 0.0 0.00 0.00 0.00 51 1017.6
20260831200045 91 242 0.0 0.0 0.00 0.00 0.00 54 1017.6
20260831195545 90 84 0.0 0.0 0.00 0.00 0.00 56 1017.8
20260831195045 90 90 0.0 0.0 0.00 0.00 0.00 51 1017.9
20260831194616 91 221 0.0 3.0 0.00 0.00 0.00 51 1018.0
20260831194044 91 246 1.0 3.0 0.00 0.00 0.00 49 1018.0
20260831193544 90 286 0.0 2.0 0.00 0.00 0.00 55 1018.0
20260831193045 91 286 0.0 2.0 0.00 0.00 0.00 57 1018.1
20260831192539 90 329 0.0 0.0 0.00 0.00 0.00 57 1018.1
20260831192039 90 325 0.0 1.0 0.00 0.00 0.00 57 1018.2
20260831191541 90 287 0.0 2.0 0.00 0.00 0.00 56 1018.3
20260831191038 90 284 0.0 3.0 0.00 0.00 0.00 56 1018.3
20260831190538 90 289 0.0 3.0 0.00 0.00 0.00 60 1018.3
20260831190043 90 256 0.0 3.0 0.00 0.00 0.00 59 1018.4
20260831185537 90 256 1.0 3.0 0.00 0.00 0.00 59 1018.4
20260831185034 89 265 1.0 3.0 0.00 0.00 0.00 63 1018.4
20260831184554 88 321 0.0 3.0 0.00 0.00 0.00 61 1018.5
20260831184035 87 223 2.0 3.0 0.00 0.00 0.00 62 1018.6
20260831183536 87 282 0.0 2.0 0.00 0.00 0.00 64 1018.6
20260831183039 88 282 0.0 2.0 0.00 0.00 0.00 62 1018.7
20260831182534 88 286 0.0 3.0 0.00 0.00 0.00 63 1018.7
20260831182036 88 263 0.0 3.0 0.00 0.00 0.00 62 1018.8
20260831181534 88 19 0.0 3.0 0.00 0.00 0.00 62 1018.9
20260831181034 88 108 1.0 3.0 0.00 0.00 0.00 62 1018.9
20260831180533 89 360 0.0 3.0 0.00 0.00 0.00 63 1019.0
20260831180036 89 108 1.0 3.0 0.00 0.00 0.00 61 1019.1
20260831175533 88 41 0.0 2.0 0.00 0.00 0.00 65 1019.1
20260831175031 87 331 0.0 3.0 0.00 0.00 0.00 66 1019.1
20260831174531 88 267 1.0 3.0 0.00 0.00 0.00 63 1019.1
20260831174031 87 308 0.0 3.0 0.00 0.00 0.00 66 1019.2
20260831173534 88 211 1.0 3.0 0.00 0.00 0.00 62 1019.3
20260831173033 88 343 0.0 3.0 0.00 0.00 0.00 63 1019.2
20260831172529 87 254 1.0 3.0 0.00 0.00 0.00 66 1019.3
20260831172028 88 248 1.0 3.0 0.00 0.00 0.00 64 1019.4
20260831171528 88 338 1.0 2.0 0.00 0.00 0.00 65 1019.3
20260831171027 87 323 1.0 3.0 0.00 0.00 0.00 68 1019.3
20260831170526 86 347 0.0 2.0 0.00 0.00 0.00 68 1019.3
20260831170025 86 45 0.0 2.0 0.00 0.00 0.00 69 1019.5
20260831165528 85 249 0.0 1.0 0.00 0.00 0.00 73 1019.6
20260831165025 84 228 0.0 0.0 0.00 0.00 0.00 75 1019.7
20260831164527 84 228 0.0 2.0 0.00 0.00 0.00 74 1019.8
20260831164025 85 228 0.0 3.0 0.00 0.00 0.00 71 1019.8
20260831163525 87 275 1.0 3.0 0.00 0.00 0.00 71 1019.8
20260831163025 87 271 1.0 3.0 0.00 0.00 0.00 70 1019.8
20260831162524 86 204 0.0 2.0 0.00 0.00 0.00 69 1019.8
20260831162023 86 109 1.0 2.0 0.00 0.00 0.00 68 1019.9
20260831161523 86 188 0.0 5.0 0.00 0.00 0.00 70 1019.9